Find Starlink 5738

NORAD ID: 55573 Int'l Des: 2023-020 Owner: SPXS Country: US Constellation: starlink operational
LEOCIRCULAR

現在のビュー

3D地球を読み込み中...

About Starlink 5738

Starlink 5738 (NORAD 55573) is a starlink constellation satellite (v1.5) launched Feb 12, 2023 by SPXS of US. It operates in LEO, CIRCULAR orbit with a mass of 305.00 kg.

Starlink 5738について

説明を読み込み中...

次回通過

Passes for default location (London). Set your location on the main map for personalized predictions.

高度履歴

Loading altitude history...

軌道要素

1 55573U 23020E 26170.23307610 -.00007162 00000-0 -25080-3 0 9996
2 55573 43.0022 155.0539 0001622 255.5622 104.5050 15.27602493184405
Epoch: Jun 19, 2026 • Age: 27 hours

現在のステータス

高度 483.2 km
速度 7.63 km/s
衛星直下点 -4.13°S, 71.82°W
打ち上げ日 Feb 12, 2023
運用期間 3.3 years
タイプ internet

技術仕様

分類 Payload
質量 305.00 kg
乾燥質量 290.00 kg
総質量 305.00 kg
長さ 0.20 m
直径 2.80 m
スパン 9.00 m
形状 Box + pan
製造者 SPXS
バスタイプ Starlink
フェーズステータス In Orbit
所有者/国 SPXS/US

Most Searched